Voltar ao catálogo

COSMOS 1712

GLONASS

AtivoNavegaçãoMEO
NORAD 16398·PAYLOAD·🇷🇺 Russia

Lançado Dec 24, 1985 de Baikonur Cosmodrome

Loading…

Próximas Passagens (próximas 24 horas)

TLE

AtualizadoSource: Space-Track

Época: Sep 11, 2026, 08:11 UTC

1 16398U 85118C   26254.34112103 -.00000055  00000-0  00000-0 0  9995
2 16398  66.0136 322.2020 0010181  11.3263 349.7023  2.12919766315885

Acompanhe COSMOS 1712 em tempo real com AllMySat

Download on the App Store